GW5264 Weather Reports


time (UTC)temp
F
wind
direction
speed
knots
gust
knots
rain 1hr
in
rain 24hr
in
rain mn
in
humidity
%
barometer
mb
20260508111236 39 20 0.0 0.9 0.00 0.00 0.00 99 1019.5
20260508110733 39 20 0.0 0.9 0.00 0.00 0.00 99 1019.5
20260508110230 38 20 0.0 0.9 0.00 0.00 0.00 99 1019.6
20260508105729 39 20 0.9 1.7 0.00 0.00 0.00 99 1019.6
20260508105226 39 20 0.0 0.9 0.00 0.00 0.00 99 1019.4
20260508104723 39 20 0.0 0.0 0.00 0.00 0.00 99 1019.5
20260508104220 39 20 0.0 0.0 0.00 0.00 0.00 99 1019.4
20260508103718 39 20 0.0 1.7 0.00 0.00 0.00 99 1019.3
20260508103215 39 20 0.0 1.7 0.00 0.00 0.00 99 1019.3
20260508102712 39 20 0.0 0.9 0.00 0.00 0.00 99 1019.3
20260508102210 39 20 0.0 0.9 0.00 0.00 0.00 99 1019.4
20260508101707 39 20 0.0 0.0 0.00 0.00 0.00 99 1019.2
20260508101205 39 20 0.0 0.9 0.00 0.00 0.00 99 1019.1
20260508100702 39 20 0.9 0.9 0.00 0.00 0.00 99 1019.1
20260508100200 38 20 0.0 0.9 0.00 0.00 0.00 99 1019.1
20260508095656 38 20 0.0 1.7 0.00 0.00 0.00 99 1019.0
20260508095153 39 49 0.0 0.9 0.00 0.00 0.00 99 1018.9
20260508094649 38 49 1.7 2.6 0.00 0.00 0.00 99 1018.9
20260508094147 38 49 2.6 2.6 0.00 0.00 0.00 99 1018.9
20260508093644 38 5 0.0 0.9 0.00 0.00 0.00 99 1018.8
20260508093141 39 5 0.0 1.7 0.00 0.00 0.00 99 1018.8
20260508092638 39 5 0.0 1.7 0.00 0.00 0.00 99 1018.9
20260508092137 39 36 0.0 0.9 0.00 0.00 0.00 99 1018.5
20260508091634 39 36 0.0 1.7 0.00 0.00 0.00 99 1018.7
20260508091131 39 19 1.7 2.6 0.00 0.00 0.00 99 1018.6
20260508090629 39 20 0.9 1.7 0.00 0.00 0.00 99 1018.6
20260508090126 40 20 0.0 0.9 0.00 0.00 0.00 99 1018.6
20260508085622 39 20 0.0 0.9 0.00 0.00 0.00 99 1018.6
20260508085119 39 20 0.0 0.0 0.00 0.00 0.00 99 1018.7
20260508084615 39 20 0.0 0.9 0.00 0.00 0.00 99 1018.5
20260508084113 39 20 0.0 1.7 0.00 0.00 0.00 99 1018.5
20260508083610 39 20 0.9 1.7 0.00 0.00 0.00 99 1018.6
20260508083107 40 20 0.0 0.9 0.00 0.00 0.00 99 1018.6
20260508082603 39 20 0.9 0.9 0.00 0.00 0.00 99 1018.6
20260508082100 40 20 0.9 1.7 0.00 0.00 0.00 99 1018.6
20260508081558 40 20 0.0 0.9 0.00 0.00 0.00 99 1018.7
20260508081053 40 20 0.0 0.0 0.00 0.00 0.00 99 1018.5
20260508080551 40 20 0.0 0.9 0.00 0.00 0.00 99 1018.6
20260508080049 40 20 0.0 0.9 0.00 0.00 0.00 98 1018.7
20260508075545 40 20 0.0 0.0 0.00 0.00 0.00 98 1018.2
20260508075043 39 20 0.0 0.0 0.00 0.00 0.00 98 1018.4
20260508074540 39 20 0.0 0.0 0.00 0.00 0.00 99 1018.3
20260508074037 39 20 0.0 0.0 0.00 0.00 0.00 99 1018.4
20260508073534 39 20 0.0 0.0 0.00 0.00 0.00 99 1018.3
20260508073032 39 20 0.0 0.0 0.00 0.00 0.00 99 1018.1
20260508072527 39 20 0.0 0.0 0.00 0.00 0.00 99 1018.2
20260508072025 39 20 0.0 0.0 0.00 0.00 0.00 99 1018.2
20260508071523 39 20 0.0 0.0 0.00 0.00 0.00 99 1018.0
20260508071020 39 20 0.0 0.0 0.00 0.00 0.00 99 1018.1
20260508070518 39 20 0.0 0.0 0.00 0.00 0.00 99 1018.4
20260508070016 39 20 0.0 0.0 0.00 0.00 0.00 99 1018.3
20260508065513 39 20 0.0 0.0 0.00 0.00 0.00 99 1018.4
20260508065011 40 20 0.0 0.0 0.00 0.00 0.00 99 1018.5
20260508064509 40 20 0.0 0.0 0.00 0.00 0.00 99 1018.1
20260508064006 40 20 0.0 0.0 0.00 0.00 0.00 99 1018.4
20260508063503 40 20 0.0 0.0 0.00 0.00 0.00 99 1018.4
20260508063001 40 20 0.0 0.0 0.00 0.00 0.00 99 1018.5
20260508062459 40 20 0.0 0.0 0.00 0.00 0.00 99 1018.6
20260508061955 40 20 0.0 0.0 0.00 0.00 0.00 99 1018.6
20260508061453 40 20 0.0 0.0 0.00 0.00 0.00 99 1018.5
20260508060949 40 20 0.0 0.0 0.00 0.00 0.00 99 1018.3
20260508060447 40 20 0.0 0.0 0.00 0.00 0.00 99 1018.2
20260508055943 40 20 0.0 0.0 0.00 0.00 0.00 99 1018.5
20260508055440 40 20 0.0 0.0 0.00 0.00 0.00 99 1018.5
20260508054936 40 20 0.0 0.0 0.00 0.00 0.00 99 1018.4
20260508054433 40 20 0.0 0.0 0.00 0.00 0.00 99 1018.3
20260508053930 40 20 0.0 0.0 0.00 0.00 0.00 99 1018.3
20260508053427 40 20 0.0 0.0 0.00 0.00 0.00 99 1018.2
20260508052925 41 20 0.0 0.0 0.00 0.00 0.00 99 1018.4
20260508052422 41 20 0.0 0.0 0.00 0.00 0.00 99 1018.1
20260508051918 41 20 0.0 0.0 0.00 0.00 0.00 99 1018.2
20260508051414 41 20 0.0 0.0 0.00 0.00 0.00 99 1018.3
20260508050910 41 20 0.0 0.0 0.00 0.00 0.00 99 1018.1
20260508050407 41 20 0.0 0.0 0.00 0.00 0.00 99 1018.1
20260508045903 41 20 0.0 0.0 0.00 0.00 0.00 98 1018.2
20260508045401 41 20 0.0 0.0 0.00 0.00 0.00 98 1018.3
20260508044858 41 20 0.0 0.0 0.00 0.00 0.00 98 1018.1
20260508044355 41 20 0.0 0.0 0.00 0.00 0.00 98 1018.2
20260508043850 41 20 0.0 0.0 0.00 0.00 0.00 98 1018.2
20260508043348 42 20 0.0 0.0 0.00 0.00 0.00 98 1018.1
20260508042844 42 20 0.0 0.0 0.00 0.00 0.00 98 1018.3
20260508042342 42 20 0.0 0.0 0.00 0.00 0.00 97 1018.0
20260508041839 42 20 0.0 0.0 0.00 0.00 0.00 97 1018.2
20260508041335 42 20 0.0 0.0 0.00 0.00 0.00 97 1017.9
20260508040832 42 20 0.0 0.0 0.00 0.00 0.00 97 1018.0
20260508040329 42 20 0.0 0.0 0.00 0.00 0.00 98 1018.0
20260508035826 42 20 0.0 0.0 0.00 0.01 0.01 98 1018.0
20260508035324 42 20 0.0 0.0 0.00 0.01 0.01 98 1017.9
20260508034820 42 20 0.0 0.0 0.00 0.01 0.01 98 1018.0
20260508034318 42 20 0.0 0.0 0.00 0.01 0.01 98 1018.0
20260508033814 43 20 0.9 0.9 0.00 0.01 0.01 97 1017.7
20260508033313 43 20 0.0 0.0 0.00 0.01 0.01 97 1017.8
20260508032810 43 20 0.0 0.0 0.00 0.01 0.01 97 1017.8
20260508032307 43 20 0.0 0.0 0.00 0.01 0.01 97 1017.7
20260508031804 43 20 0.0 0.0 0.00 0.01 0.01 97 1017.7
20260508031300 43 20 0.0 0.0 0.00 0.01 0.01 97 1017.7
20260508030757 43 20 0.0 0.0 0.00 0.01 0.01 96 1017.5
20260508030254 44 20 0.0 0.0 0.00 0.01 0.01 96 1017.3
20260508025751 44 20 0.0 0.0 0.00 0.01 0.01 96 1017.2
20260508025248 44 20 0.0 0.0 0.00 0.01 0.01 95 1017.2
20260508024744 44 20 0.0 0.0 0.00 0.01 0.01 95 1017.3
20260508024241 44 20 0.0 0.0 0.00 0.01 0.01 95 1017.3
20260508023738 45 20 0.0 0.0 0.00 0.01 0.01 95 1017.0
20260508023235 45 20 0.0 0.0 0.00 0.01 0.01 95 1017.0
20260508022731 45 20 0.0 0.0 0.00 0.01 0.01 94 1016.9
20260508022227 45 20 0.0 0.0 0.00 0.01 0.01 94 1017.0
20260508021724 45 20 0.0 0.0 0.00 0.01 0.01 94 1016.8
20260508021220 45 20 0.0 0.0 0.00 0.01 0.01 94 1016.8
20260508020717 46 20 0.0 0.0 0.00 0.01 0.01 94 1016.6
20260508020214 46 20 0.0 0.0 0.00 0.01 0.01 94 1016.4
20260508015712 46 20 0.0 0.0 0.00 0.01 0.01 94 1016.4
20260508015209 47 20 0.0 0.0 0.00 0.01 0.01 93 1016.1
20260508014705 47 20 0.0 0.0 0.00 0.01 0.01 92 1016.3
20260508014201 47 20 0.0 0.0 0.00 0.01 0.01 92 1016.2
20260508013658 47 20 0.0 0.0 0.00 0.01 0.01 91 1016.1
20260508013154 47 20 0.0 0.9 0.00 0.01 0.01 92 1016.0
20260508012652 48 20 0.0 0.0 0.00 0.01 0.01 91 1015.7
20260508012149 48 20 0.0 0.0 0.00 0.01 0.01 90 1015.9
20260508011647 48 20 0.0 0.0 0.00 0.01 0.01 90 1015.8
20260508011144 49 20 0.9 0.9 0.00 0.01 0.01 89 1015.6
20260508010641 49 20 0.0 0.0 0.00 0.01 0.01 89 1015.6
20260508010139 49 20 0.0 0.0 0.00 0.01 0.01 89 1015.3
20260508005636 50 20 0.0 0.0 0.00 0.01 0.01 87 1015.4
20260508005132 50 20 0.0 0.0 0.00 0.01 0.01 86 1015.5
20260508004628 51 20 0.0 0.9 0.00 0.01 0.01 86 1015.2
20260508004125 51 20 0.9 1.7 0.00 0.01 0.01 86 1015.4
20260508003621 51 20 0.0 1.7 0.00 0.01 0.01 84 1015.2
20260508003119 52 20 0.9 1.7 0.00 0.01 0.01 85 1015.1
20260508002615 52 20 0.0 0.0 0.00 0.01 0.01 84 1015.2
20260508002113 53 20 0.9 1.7 0.00 0.01 0.01 84 1015.0
20260508001608 53 20 0.0 0.9 0.00 0.01 0.01 82 1015.0
20260508001104 53 20 0.9 1.7 0.00 0.01 0.01 76 1014.8
20260508000600 54 20 0.9 0.9 0.00 0.01 0.01 82 1014.8
20260508000058 54 20 0.0 1.7 0.00 0.01 0.01 79 1014.5
20260507235554 54 20 0.0 0.9 0.00 0.01 0.01 82 1014.4
20260507235052 55 346 1.7 1.7 0.00 0.01 0.01 80 1014.7
20260507234548 56 346 0.9 0.9 0.00 0.01 0.01 78 1014.5
20260507234044 56 65 4.3 5.2 0.00 0.01 0.01 65 1014.4
20260507233541 57 96 0.0 5.2 0.00 0.01 0.01 72 1014.1
20260507233040 58 10 0.0 2.6 0.00 0.01 0.01 71 1014.3
20260507232536 58 109 3.5 6.1 0.00 0.01 0.01 58 1014.3
20260507232033 60 69 0.0 2.6 0.00 0.01 0.01 46 1014.2
20260507231530 60 37 0.9 6.1 0.00 0.01 0.01 46 1014.3
20260507231027 60 10 0.0 0.9 0.00 0.01 0.01 60 1014.4
20260507230524 60 32 0.9 1.7 0.00 0.01 0.01 68 1014.1
20260507230020 60 32 0.0 2.6 0.00 0.01 0.01 65 1014.1
20260507225515 61 30 0.9 0.9 0.00 0.01 0.01 62 1014.1
20260507225012 62 356 0.0 1.7 0.00 0.01 0.01 63 1014.0
20260507224508 61 328 0.0 0.9 0.00 0.01 0.01 57 1014.1
20260507224004 61 10 0.9 0.9 0.00 0.01 0.01 53 1013.9
20260507223500 61 32 0.9 3.5 0.00 0.01 0.01 56 1014.0
20260507222958 62 55 0.9 0.9 0.00 0.01 0.01 60 1014.1
20260507222455 63 9 0.9 1.7 0.00 0.01 0.01 59 1013.9
20260507221951 64 50 1.7 2.6 0.00 0.01 0.01 43 1013.9
20260507221448 63 71 1.7 1.7 0.00 0.01 0.01 47 1014.1
20260507220944 62 143 1.7 2.6 0.00 0.01 0.01 45 1013.9
20260507220442 63 174 4.3 5.2 0.00 0.01 0.01 43 1014.0
20260507215938 63 313 1.7 3.5 0.00 0.01 0.01 41 1013.7
20260507215435 64 191 3.5 6.1 0.00 0.01 0.01 44 1013.8
20260507214932 62 50 0.9 5.2 0.00 0.01 0.01 48 1013.8
20260507214430 63 45 0.9 0.9 0.00 0.01 0.01 51 1013.7
20260507213925 64 80 0.9 0.9 0.00 0.01 0.01 50 1013.5
20260507213422 65 57 0.0 3.5 0.00 0.01 0.01 42 1013.5
20260507212919 66 171 5.2 6.1 0.00 0.01 0.01 43 1013.2
20260507212409 66 186 1.7 7.0 0.00 0.01 0.01 41 1013.2
20260507211906 67 244 1.7 3.5 0.00 0.01 0.01 41 1013.3
20260507211403 64 235 0.9 2.6 0.00 0.01 0.01 47 1013.2
20260507210900 62 179 3.5 7.8 0.00 0.01 0.01 43 1013.1
20260507210356 63 161 1.7 6.1 0.00 0.01 0.01 45 1013.2
20260507205852 63 178 5.2 7.0 0.00 0.01 0.01 46 1013.2
20260507205349 63 179 0.9 5.2 0.00 0.01 0.01 45 1013.0
20260507204846 64 211 7.8 9.6 0.00 0.01 0.01 44 1013.3
20260507204343 62 164 4.3 6.1 0.00 0.01 0.01 46 1013.0
20260507203841 63 239 1.7 1.7 0.00 0.01 0.01 46 1013.0
20260507203339 64 219 2.6 5.2 0.00 0.01 0.01 47 1013.3
20260507202834 65 198 3.5 5.2 0.00 0.01 0.01 44 1013.3
20260507202331 64 237 1.7 1.7 0.00 0.01 0.01 45 1013.1
20260507201827 62 152 0.9 2.6 0.00 0.01 0.01 49 1013.2
20260507201323 61 194 3.5 7.8 0.00 0.01 0.01 47 1013.4
20260507200819 62 182 3.5 6.1 0.00 0.01 0.01 48 1013.3
20260507200315 64 209 2.6 2.6 0.00 0.01 0.01 46 1013.4
20260507195811 64 180 1.7 8.7 0.00 0.01 0.01 47 1013.5
20260507195309 63 168 0.0 3.5 0.00 0.01 0.01 43 1013.4
20260507194806 62 186 3.5 5.2 0.00 0.01 0.01 48 1013.8
20260507194302 62 171 2.6 7.8 0.00 0.01 0.01 54 1013.6
20260507193759 62 165 1.7 3.5 0.00 0.01 0.01 58 1013.7
20260507193256 62 147 2.6 5.2 0.00 0.01 0.01 55 1013.8
20260507192751 62 140 0.0 2.6 0.00 0.01 0.01 52 1013.9
20260507192248 61 82 0.0 5.2 0.00 0.01 0.01 51 1013.8
20260507191744 61 195 4.3 5.2 0.00 0.01 0.01 51 1013.9
20260507191241 61 198 4.3 6.1 0.00 0.01 0.01 52 1014.1
20260507190738 60 117 0.9 2.6 0.00 0.01 0.01 55 1014.1
20260507190237 61 251 1.7 5.2 0.00 0.01 0.01 55 1014.2
20260507185735 61 196 3.5 3.5 0.00 0.01 0.01 53 1014.2
20260507185232 61 237 1.7 5.2 0.00 0.01 0.01 57 1014.3
20260507184729 62 156 0.9 2.6 0.00 0.01 0.01 59 1014.1
20260507184227 62 233 2.6 3.5 0.00 0.01 0.01 51 1014.2
20260507183723 63 205 2.6 2.6 0.00 0.01 0.01 51 1014.1
20260507183220 63 183 2.6 5.2 0.00 0.01 0.01 49 1014.1
20260507182718 62 190 1.7 3.5 0.00 0.01 0.01 59 1014.1
20260507182213 62 52 0.0 5.2 0.00 0.01 0.01 56 1014.3
20260507181710 60 123 0.0 0.9 0.00 0.01 0.01 59 1014.3
20260507181206 60 35 0.9 1.7 0.00 0.01 0.01 58 1014.6
20260507180702 62 328 2.6 3.5 0.00 0.01 0.01 53 1014.3
20260507180159 62 239 1.7 2.6 0.00 0.01 0.01 55 1014.3
20260507175655 62 254 2.6 3.5 0.00 0.01 0.01 55 1014.4
20260507175152 61 203 2.6 6.1 0.00 0.01 0.01 55 1014.6
20260507174649 63 193 1.7 2.6 0.00 0.01 0.01 48 1014.6
20260507174148 62 251 1.7 1.7 0.00 0.01 0.01 49 1014.6
20260507173644 61 180 0.0 3.5 0.00 0.01 0.01 52 1014.3
20260507173141 61 178 0.0 3.5 0.00 0.01 0.01 56 1014.5
20260507172637 62 210 3.5 3.5 0.00 0.01 0.01 51 1014.5
20260507172135 62 263 1.7 3.5 0.00 0.01 0.01 52 1014.6
20260507171635 60 198 0.9 1.7 0.00 0.01 0.01 61 1014.8
20260507171133 61 196 2.6 5.2 0.00 0.01 0.01 56 1014.8
20260507170630 61 214 0.0 1.7 0.00 0.01 0.01 50 1014.9
20260507170127 62 259 1.7 2.6 0.00 0.01 0.01 50 1015.1
20260507165622 61 185 2.6 3.5 0.00 0.01 0.01 52 1014.9
20260507165119 60 73 0.9 2.6 0.00 0.01 0.01 68 1015.0
20260507164615 61 231 3.5 5.2 0.00 0.01 0.01 52 1015.1
20260507164112 60 310 0.0 2.6 0.00 0.01 0.01 51 1015.1
20260507163609 59 310 0.0 2.6 0.00 0.01 0.01 59 1015.3
20260507163108 58 233 0.9 1.7 0.00 0.01 0.01 58 1015.3
20260507162607 58 290 1.7 2.6 0.00 0.01 0.01 56 1015.3
20260507162105 58 60 1.7 2.6 0.00 0.01 0.01 54 1015.4
20260507161600 58 267 1.7 1.7 0.00 0.01 0.01 55 1015.4
20260507161057 58 308 2.6 2.6 0.00 0.01 0.01 57 1015.3
20260507160554 59 236 0.9 1.7 0.00 0.01 0.01 56 1015.4
20260507160050 58 261 0.9 1.7 0.00 0.01 0.01 52 1015.4
20260507155545 59 296 0.9 1.7 0.00 0.01 0.01 58 1015.5
20260507155043 58 296 0.0 1.7 0.00 0.01 0.01 59 1015.4
20260507154540 58 275 2.6 3.5 0.00 0.01 0.01 54 1015.6
20260507154037 58 295 1.7 2.6 0.00 0.01 0.01 55 1015.4
20260507153534 58 85 0.9 2.6 0.00 0.01 0.01 57 1015.5
20260507153030 58 245 0.9 1.7 0.00 0.01 0.01 65 1015.4
20260507152525 60 61 0.0 0.9 0.00 0.01 0.01 51 1015.4
20260507152022 60 230 1.7 1.7 0.00 0.01 0.01 57 1015.4
20260507151518 58 312 0.9 1.7 0.00 0.01 0.01 59 1015.5
20260507151015 57 312 0.0 0.9 0.00 0.01 0.01 61 1015.7
20260507150512 57 287 0.9 0.9 0.00 0.01 0.01 62 1015.7
20260507150009 57 287 1.7 2.6 0.00 0.01 0.01 66 1015.7
20260507145504 57 287 2.6 3.5 0.00 0.01 0.01 65 1015.6
20260507145002 57 264 1.7 3.5 0.00 0.01 0.01 66 1015.6
20260507144458 56 323 0.9 2.6 0.00 0.01 0.01 70 1015.9
20260507143955 56 298 0.9 1.7 0.00 0.01 0.01 79 1015.9
20260507143453 56 344 0.9 1.7 0.00 0.01 0.01 80 1015.7
20260507142949 56 344 1.7 1.7 0.00 0.01 0.01 73 1016.0
20260507142445 56 344 0.0 0.0 0.00 0.01 0.01 72 1015.8
20260507141943 55 344 0.0 0.0 0.00 0.01 0.01 84 1015.9
20260507141438 55 344 0.0 0.9 0.00 0.01 0.01 84 1016.0
20260507140935 55 344 0.9 0.9 0.00 0.01 0.01 85 1016.3
20260507140432 55 344 0.0 0.0 0.00 0.01 0.01 85 1016.1
20260507135930 55 344 0.0 0.9 0.00 0.01 0.01 88 1016.2
20260507135426 54 344 0.0 0.0 0.00 0.01 0.01 89 1016.6
20260507134924 54 344 0.0 0.0 0.00 0.01 0.01 88 1016.4
20260507134420 53 344 0.0 0.9 0.00 0.01 0.01 89 1016.7
20260507133916 53 344 0.0 0.0 0.00 0.01 0.01 91 1016.6
20260507133412 53 344 0.0 0.0 0.00 0.01 0.01 92 1016.7
20260507132911 53 344 0.0 0.0 0.00 0.01 0.01 89 1016.6
20260507132407 53 344 0.0 0.9 0.00 0.01 0.01 93 1016.7
20260507131905 53 344 0.9 0.9 0.00 0.01 0.01 92 1016.4
20260507131400 52 344 0.0 0.0 0.00 0.01 0.01 92 1016.6
20260507130857 53 344 0.0 0.0 0.00 0.01 0.01 96 1016.4
20260507130354 52 344 0.0 0.0 0.00 0.01 0.01 94 1016.7
20260507125853 52 344 0.0 0.0 0.00 0.01 0.01 95 1016.6
20260507125350 52 344 0.0 0.0 0.00 0.01 0.01 98 1016.3
20260507124848 52 344 0.0 0.0 0.00 0.01 0.01 99 1016.3
20260507124344 52 344 0.0 0.0 0.00 0.01 0.01 99 1016.4
20260507123843 51 344 0.0 0.0 0.00 0.01 0.01 99 1016.6
20260507123339 51 344 0.0 0.0 0.00 0.01 0.01 99 1016.6
20260507122835 50 344 0.0 0.0 0.00 0.01 0.01 99 1016.7
20260507122331 50 344 0.0 0.0 0.00 0.01 0.01 99 1016.6
20260507121828 50 344 0.0 0.0 0.00 0.01 0.01 99 1016.6
20260507121323 50 345 0.0 0.0 0.00 0.01 0.01 99 1016.6
20260507120820 50 345 0.0 0.0 0.00 0.01 0.01 99 1016.6
20260507120316 49 345 0.0 0.0 0.00 0.01 0.01 99 1016.6
20260507115812 49 345 0.0 0.0 0.00 0.01 0.01 99 1016.4
20260507115308 50 345 0.0 0.0 0.00 0.01 0.01 99 1016.6
20260507114804 50 345 0.0 0.0 0.00 0.01 0.01 99 1016.6
20260507114301 49 345 0.0 0.0 0.00 0.01 0.01 99 1016.6
20260507113759 49 345 0.0 0.0 0.00 0.01 0.01 99 1016.7
20260507113256 50 345 0.0 0.0 0.00 0.01 0.01 99 1016.4
20260507112753 50 345 0.0 0.0 0.00 0.01 0.01 99 1016.3
20260507112250 50 345 0.0 0.0 0.00 0.01 0.01 99 1016.3
20260507111748 49 345 0.0 0.0 0.00 0.01 0.01 99 1016.3